STARLINK-11289 [DTC] (60991 NORAD) Tracking and Keplerian Element Data

This shows tracking and keplerian element data for the satellite.

Feedback or suggestion? Click here.




ElementValue
Catalog60991
NameSTARLINK-11289 [DTC]
Epoch Orbit702
Epoch Day286.72911745
Epoch Year2024
RAAN290.3209
Inclination53.1573
Eccentricity6.02E-05
Argument of Perigee59.7964
Mean Anonmoly300.3117
Mean Motion15.76738608
Decay Rate0.00014604
L11 60991U 24158B 24286.72911745 .00014604 00000+0 93026-4 0 9991
L22 60991 53.1573 290.3209 0000602 59.7964 300.3117 15.76738608 7029



Live tracking and technical data element details for STARLINK-11289 [DTC] (NORAD 60991). STARLINK-11289 [DTC] can be tracked NOW for your location showing map with azimuth and elevation plus other details from your city location.







IsCatalogInMostPopularTable: catalog: 60991, numindb: 9
Update: records affected: 1



GetName: 60991 STARLINK-11289 [DTC]

Hit Count: updated at: Fri, 06 Dec 2024 10:25:47 GMT